TimeEST,TemperatureF,Dew PointF,Humidity,Sea Level PressureIn,VisibilityMPH,Wind Direction,Wind SpeedMPH,Gust SpeedMPH,PrecipitationIn,Events,Conditions,WindDirDegrees,DateUTC
12:15 AM,39.4,33.8,80,30.22,10.0,Calm,Calm,-,N/A,,Overcast,0,2012-12-07 05:15:00
12:55 AM,40.1,34.3,80,30.21,10.0,Calm,Calm,-,N/A,,Overcast,0,2012-12-07 05:55:00
1:15 AM,40.5,34.7,80,30.20,10.0,Calm,Calm,-,N/A,,Overcast,0,2012-12-07 06:15:00
1:35 AM,40.3,34.7,80,30.20,10.0,South,4.6,-,N/A,,Overcast,180,2012-12-07 06:35:00
1:55 AM,40.1,34.7,81,30.20,10.0,South,3.5,-,N/A,,Overcast,170,2012-12-07 06:55:00
2:15 AM,40.1,34.9,82,30.20,10.0,SSE,4.6,-,N/A,,Overcast,160,2012-12-07 07:15:00
2:35 AM,40.1,35.2,83,30.19,10.0,Calm,Calm,-,N/A,,Overcast,0,2012-12-07 07:35:00
2:55 AM,40.5,35.6,83,30.18,10.0,SSE,4.6,-,N/A,,Overcast,160,2012-12-07 07:55:00
3:15 AM,40.5,36.0,84,30.18,10.0,Calm,Calm,-,N/A,,Overcast,0,2012-12-07 08:15:00
3:35 AM,40.5,36.9,87,30.18,10.0,South,3.5,-,N/A,Rain,Light Rain,180,2012-12-07 08:35:00
3:55 AM,40.1,37.8,91,30.16,10.0,Calm,Calm,-,N/A,,Light Drizzle,0,2012-12-07 08:55:00
4:15 AM,40.1,37.8,91,30.16,10.0,Calm,Calm,-,N/A,,Overcast,0,2012-12-07 09:15:00
4:35 AM,40.1,37.8,91,30.16,10.0,Calm,Calm,-,N/A,,Overcast,0,2012-12-07 09:35:00
4:55 AM,40.1,38.3,93,30.16,10.0,South,3.5,-,N/A,Rain,Light Rain,180,2012-12-07 09:55:00
5:15 AM,40.1,38.7,95,30.16,10.0,SSE,3.5,-,N/A,Rain,Light Rain,160,2012-12-07 10:15:00
5:35 AM,40.1,39.2,97,30.16,10.0,Calm,Calm,-,N/A,Rain,Rain,0,2012-12-07 10:35:00
5:55 AM,40.1,39.4,97,30.16,10.0,Calm,Calm,-,N/A,,Overcast,0,2012-12-07 10:55:00
6:15 AM,40.1,39.6,98,30.16,10.0,SSE,5.8,-,N/A,Rain,Rain,150,2012-12-07 11:15:00
6:35 AM,40.1,39.7,99,30.16,10.0,SSE,4.6,-,N/A,,Overcast,160,2012-12-07 11:35:00
6:55 AM,40.1,40.1,100,30.16,10.0,SSE,4.6,-,N/A,,Overcast,160,2012-12-07 11:55:00
7:15 AM,40.5,40.1,99,30.16,10.0,Calm,Calm,-,N/A,,Overcast,0,2012-12-07 12:15:00
7:35 AM,40.6,40.3,99,30.16,10.0,South,3.5,-,N/A,,Overcast,180,2012-12-07 12:35:00
7:55 AM,41.2,40.5,97,30.16,10.0,South,4.6,-,N/A,,Overcast,180,2012-12-07 12:55:00
8:15 AM,41.4,40.8,98,30.16,10.0,South,3.5,-,N/A,,Overcast,190,2012-12-07 13:15:00
8:35 AM,41.7,40.8,97,30.16,10.0,SSW,3.5,-,N/A,,Overcast,200,2012-12-07 13:35:00
8:55 AM,42.1,41.0,96,30.16,10.0,South,4.6,-,N/A,,Overcast,190,2012-12-07 13:55:00
9:15 AM,42.8,41.4,95,30.16,10.0,South,5.8,-,N/A,,Overcast,190,2012-12-07 14:15:00
9:35 AM,43.3,41.5,93,30.16,10.0,SSW,4.6,-,N/A,,Overcast,200,2012-12-07 14:35:00
9:55 AM,43.9,41.9,93,30.16,10.0,South,4.6,-,N/A,,Overcast,190,2012-12-07 14:55:00
10:15 AM,45.5,42.8,90,30.15,10.0,SSW,5.8,-,N/A,,Overcast,200,2012-12-07 15:15:00
10:35 AM,46.2,42.4,87,30.13,10.0,South,5.8,-,N/A,,Overcast,180,2012-12-07 15:35:00
10:55 AM,47.5,42.8,84,30.13,10.0,South,6.9,-,N/A,,Overcast,190,2012-12-07 15:55:00
11:15 AM,48.2,42.4,80,30.11,10.0,SSW,6.9,-,N/A,,Overcast,200,2012-12-07 16:15:00
11:35 AM,49.1,42.1,77,30.11,10.0,South,9.2,-,N/A,,Overcast,190,2012-12-07 16:35:00
11:55 AM,50.0,42.3,75,30.10,10.0,SW,9.2,-,N/A,,Overcast,220,2012-12-07 16:55:00
12:15 PM,50.5,42.4,74,30.09,10.0,SSW,9.2,-,N/A,,Overcast,200,2012-12-07 17:15:00
12:35 PM,51.3,42.8,73,30.08,10.0,South,9.2,-,N/A,,Overcast,190,2012-12-07 17:35:00
12:55 PM,52.9,43.5,71,30.07,10.0,SSW,11.5,-,N/A,,Scattered Clouds,210,2012-12-07 17:55:00
1:15 PM,53.4,44.2,71,30.06,10.0,SSW,9.2,-,N/A,,Clear,200,2012-12-07 18:15:00
1:35 PM,54.9,45.3,70,30.05,10.0,South,9.2,-,N/A,,Clear,190,2012-12-07 18:35:00
1:55 PM,54.9,45.5,71,30.04,10.0,South,8.1,-,N/A,,Clear,190,2012-12-07 18:55:00
2:15 PM,54.5,45.5,72,30.04,10.0,SSW,5.8,-,N/A,,Clear,210,2012-12-07 19:15:00
2:35 PM,54.7,45.9,72,30.03,10.0,South,5.8,-,N/A,,Clear,170,2012-12-07 19:35:00
2:55 PM,54.3,45.7,73,30.03,10.0,SSW,5.8,-,N/A,,Clear,200,2012-12-07 19:55:00
3:15 PM,54.1,46.0,74,30.03,10.0,SSW,4.6,-,N/A,,Mostly Cloudy,200,2012-12-07 20:15:00
3:35 PM,54.0,46.0,75,30.03,10.0,South,3.5,-,N/A,,Overcast,190,2012-12-07 20:35:00
3:55 PM,53.6,46.0,76,30.03,10.0,Calm,Calm,-,N/A,,Overcast,0,2012-12-07 20:55:00
4:15 PM,53.2,46.0,77,30.03,10.0,SSE,3.5,-,N/A,,Overcast,160,2012-12-07 21:15:00
4:35 PM,52.9,45.9,77,30.03,10.0,SSE,3.5,-,N/A,,Overcast,160,2012-12-07 21:35:00
4:55 PM,52.7,45.9,78,30.03,10.0,South,3.5,-,N/A,,Overcast,180,2012-12-07 21:55:00
5:15 PM,52.2,45.9,79,30.03,10.0,Calm,Calm,-,N/A,,Overcast,0,2012-12-07 22:15:00
5:35 PM,52.2,45.9,79,30.03,10.0,SSE,5.8,-,N/A,,Overcast,160,2012-12-07 22:35:00
5:55 PM,52.3,46.4,80,30.02,10.0,SSE,4.6,-,N/A,,Overcast,150,2012-12-07 22:55:00
6:15 PM,52.2,46.6,81,30.03,10.0,South,3.5,-,N/A,,Overcast,170,2012-12-07 23:15:00
6:35 PM,52.0,46.8,82,30.03,10.0,Calm,Calm,-,N/A,,Overcast,0,2012-12-07 23:35:00
6:55 PM,52.0,46.8,82,30.02,10.0,Calm,Calm,-,N/A,,Overcast,0,2012-12-07 23:55:00
7:15 PM,51.8,46.9,83,30.03,10.0,South,3.5,-,N/A,,Overcast,170,2012-12-08 00:15:00
7:35 PM,51.8,47.1,84,30.02,10.0,South,3.5,-,N/A,,Overcast,190,2012-12-08 00:35:00
7:55 PM,51.8,47.3,85,30.02,10.0,Calm,Calm,-,N/A,,Overcast,0,2012-12-08 00:55:00
8:15 PM,51.4,47.7,87,30.02,10.0,Calm,Calm,-,N/A,,Overcast,0,2012-12-08 01:15:00
8:35 PM,51.1,48.4,90,30.01,10.0,Calm,Calm,-,N/A,,Overcast,0,2012-12-08 01:35:00
8:55 PM,50.9,49.1,94,30.01,10.0,SSW,5.8,-,N/A,,Overcast,200,2012-12-08 01:55:00
9:15 PM,50.5,49.3,95,30.01,10.0,SSW,3.5,-,N/A,,Overcast,200,2012-12-08 02:15:00
9:35 PM,50.2,49.3,97,30.00,10.0,SSW,4.6,-,N/A,,Overcast,210,2012-12-08 02:35:00
10:15 PM,50.0,49.1,97,29.99,10.0,SSW,3.5,-,N/A,,Overcast,210,2012-12-08 03:15:00
10:35 PM,50.0,49.1,97,29.98,10.0,South,4.6,-,N/A,,Overcast,180,2012-12-08 03:35:00
10:55 PM,49.8,49.3,98,29.98,10.0,South,5.8,-,N/A,,Overcast,190,2012-12-08 03:55:00
11:15 PM,50.0,49.3,97,29.98,10.0,SSW,3.5,-,N/A,,Overcast,210,2012-12-08 04:15:00
11:35 PM,49.8,49.3,98,29.97,10.0,South,4.6,-,N/A,,Overcast,190,2012-12-08 04:35:00
11:55 PM,49.6,49.3,99,29.96,10.0,SSW,4.6,-,N/A,,Overcast,200,2012-12-08 04:55:00